Flag for Switzerland Weather past 2 weeks in Kriens, Lucerne, Switzerland

Now
47 °F

Cool.


Feels Like: 43 °F
Forecast: 36 / 46 °F
Wind: 7 mph from Southwest

Location: Giswil

Current Time: Apr 1, 2015 at 2:23:38 AM

Latest Report: Apr 1, 2015 at 1:00 AM


Visibility: N/A

Pressure: 30.12 "Hg

Humidity: 59%

Dew point: 33 °F

Location of KriensLocation

Historic Weather in Kriens — Graph

°F

Kriens temperature yesterday

Maximum temperature yesterday: 65 °F (at 1:00 PM)
Minimum temperature yesterday: 45 °F (at 1:00 AM)
Average temperature yesterday: 56 °F

Past Weeks' High & Low Weather Summary

 TemperatureHumidityPressure
High65 °F (Mar 31, 1:00 PM)99% (Mar 19, 7:00 AM)30.36 "Hg (Mar 19, 7:00 AM)
Low28 °F (Mar 28, 7:00 AM)32% (Mar 31, 11:00 AM)29.62 "Hg (Mar 25, 2:00 PM)
Average45 °F77%30.03 "Hg
* Reported Mar 16 11:00 PM — Midnight between Mar 31 and Apr 1, Kriens, Weather by CustomWeather, © 2015

Note: Actual official high and low records may vary slightly from our data, if they occured in-between our weather recording intervals... More about our weather records

Advertising

Kriens weather history for previous 24 hours

 ConditionsComfort  
Time TempWeatherWind HumidityBarometerVisibility
12:00 AM
Wed, Apr 1
49 °FCool.6 mph46%30.09 "HgN/A
10:00 PM
Tue, Mar 31
48 °FCool.3 mph69%30.08 "HgN/A
9:00 PM48 °FCool.9 mph76%30.06 "HgN/A
8:00 PM47 °FCool.1 mph88%30.04 "HgN/A
7:00 PM52 °FCool.16 mph66%29.97 "HgN/A
6:00 PM53 °FCool.20 mph65%29.92 "HgN/A
5:00 PM57 °FRefreshingly cool.18 mph51%29.87 "HgN/A
4:00 PM55 °FCool.17 mph66%29.90 "HgN/A
3:00 PM60 °FRefreshingly cool.18 mph51%29.87 "HgN/A
2:00 PM62 °FRefreshingly cool.15 mph41%29.84 "HgN/A
1:00 PM65 °FMild.15 mph36%29.81 "HgN/A
12:00 PM64 °FMild.16 mph34%29.82 "HgN/A
11:00 AM64 °FMild.21 mph32%29.80 "HgN/A
10:00 AM63 °FMild.18 mph35%29.83 "HgN/A
9:00 AM63 °FMild.17 mph39%29.83 "HgN/A
8:00 AM61 °FRefreshingly cool.20 mph45%29.82 "HgN/A
7:00 AM58 °FRefreshingly cool.18 mph56%29.84 "HgN/A
6:00 AM59 °FRefreshingly cool.21 mph53%29.85 "HgN/A
4:00 AM53 °FCool.3 mph72%29.93 "HgN/A
3:00 AM52 °FCool.17 mph70%29.99 "HgN/A
2:00 AM49 °FCool.5 mph78%30.00 "HgN/A
Weather by CustomWeather, © 2015

See weather overviewHow to use our weather pages